Time,TemperatureF,DewpointF,PressureIn,WindDirection,WindDirectionDegrees,WindSpeedMPH,WindSpeedGustMPH,Humidity,HourlyPrecipIn,Conditions,Clouds,dailyrainin,SoftwareType,DateUTC
2013-06-22 11:02:00,78.0,62.0,30.25,SW,217,2.0,7.0,59,0.00,,,0.00,,2013-06-22 15:02:00,
2013-06-22 11:22:00,79.0,62.0,30.26,WNW,282,1.0,3.0,56,0.00,,,0.00,,2013-06-22 15:22:00,
2013-06-22 11:34:00,79.0,61.0,30.26,WNW,299,2.0,6.0,55,0.00,,,0.00,,2013-06-22 15:34:00,
2013-06-22 11:43:00,79.0,61.0,30.26,WNW,299,2.0,6.0,55,0.00,,,0.00,,2013-06-22 15:43:00,
2013-06-22 12:12:00,81.0,63.0,30.26,ENE,60,1.0,4.0,55,0.00,,,0.00,,2013-06-22 16:12:00,
2013-06-22 12:22:00,82.0,64.0,30.26,East,93,1.0,3.0,55,0.00,,,0.00,,2013-06-22 16:22:00,
2013-06-22 12:34:00,82.0,64.0,30.26,East,93,1.0,3.0,55,0.00,,,0.00,,2013-06-22 16:34:00,
2013-06-22 12:43:00,83.0,61.0,30.24,South,176,2.0,6.0,48,0.00,,,0.00,,2013-06-22 16:43:00,
2013-06-22 12:52:00,83.0,61.0,30.24,West,280,2.0,7.0,48,0.00,,,0.00,,2013-06-22 16:52:00,
2013-06-22 13:02:00,84.0,63.0,30.24,WSW,252,2.0,7.0,50,0.00,,,0.00,,2013-06-22 17:02:00,
2013-06-22 13:34:00,85.0,61.0,30.22,West,260,2.0,12.0,44,0.00,,,0.00,,2013-06-22 17:34:00,
2013-06-22 13:43:00,85.0,61.0,30.21,WSW,238,2.0,7.0,44,0.00,,,0.00,,2013-06-22 17:43:00,
2013-06-22 13:52:00,85.0,61.0,30.21,WSW,238,2.0,7.0,44,0.00,,,0.00,,2013-06-22 17:52:00,
2013-06-22 14:02:00,86.0,59.0,30.21,WSW,258,2.0,5.0,40,0.00,,,0.00,,2013-06-22 18:02:00,
2013-06-22 14:34:00,86.0,59.0,30.21,SW,236,2.0,7.0,40,0.00,,,0.00,,2013-06-22 18:34:00,
2013-06-22 14:52:00,86.0,59.0,30.20,WSW,238,2.0,6.0,40,0.00,,,0.00,,2013-06-22 18:52:00,
2013-06-22 15:01:00,86.0,59.0,30.20,WSW,238,2.0,6.0,40,0.00,,,0.00,,2013-06-22 19:01:00,
2013-06-22 15:11:00,86.0,59.0,30.20,WSW,238,2.0,6.0,40,0.00,,,0.00,,2013-06-22 19:11:00,
2013-06-22 15:22:00,87.0,60.0,30.19,NW,311,2.0,7.0,41,0.00,,,0.00,,2013-06-22 19:22:00,
2013-06-22 15:53:00,87.0,62.0,30.18,SSW,194,2.0,4.0,43,0.00,,,0.00,,2013-06-22 19:53:00,
2013-06-22 16:02:00,87.0,62.0,30.16,South,187,1.0,8.0,44,0.00,,,0.00,,2013-06-22 20:02:00,
2013-06-22 16:11:00,87.0,62.0,30.16,South,187,1.0,8.0,44,0.00,,,0.00,,2013-06-22 20:11:00,
2013-06-22 16:22:00,86.0,63.0,30.16,SSW,198,3.0,9.0,47,0.00,,,0.00,,2013-06-22 20:22:00,
2013-06-22 16:33:00,86.0,64.0,30.16,SW,214,2.0,8.0,48,0.00,,,0.00,,2013-06-22 20:33:00,
2013-06-22 16:43:00,86.0,63.0,30.15,SW,223,2.0,9.0,46,0.00,,,0.00,,2013-06-22 20:43:00,
2013-06-22 16:53:00,85.0,62.0,30.15,SSW,199,2.0,8.0,47,0.00,,,0.00,,2013-06-22 20:53:00,
2013-06-22 17:01:00,85.0,62.0,30.15,SSW,199,2.0,8.0,47,0.00,,,0.00,,2013-06-22 21:01:00,
2013-06-22 17:11:00,85.0,62.0,30.15,SSW,199,2.0,8.0,47,0.00,,,0.00,,2013-06-22 21:11:00,
2013-06-22 17:22:00,84.0,64.0,30.15,SSW,196,2.0,7.0,52,0.00,,,0.00,,2013-06-22 21:22:00,
2013-06-22 17:34:00,84.0,64.0,30.15,SSW,196,2.0,7.0,52,0.00,,,0.00,,2013-06-22 21:34:00,
2013-06-22 17:43:00,83.0,64.0,30.15,South,181,3.0,8.0,52,0.00,,,0.00,,2013-06-22 21:43:00,
2013-06-22 17:53:00,83.0,64.0,30.15,South,181,3.0,8.0,52,0.00,,,0.00,,2013-06-22 21:53:00,
2013-06-22 18:02:00,82.0,63.0,30.14,South,177,2.0,7.0,53,0.00,,,0.00,,2013-06-22 22:02:00,
2013-06-22 18:12:00,82.0,63.0,30.14,South,177,2.0,7.0,53,0.00,,,0.00,,2013-06-22 22:12:00,
2013-06-22 18:33:00,80.0,62.0,30.14,South,178,2.0,7.0,55,0.00,,,0.00,,2013-06-22 22:33:00,
2013-06-22 18:43:00,79.0,62.0,30.14,SSE,164,2.0,4.0,57,0.00,,,0.00,,2013-06-22 22:43:00,
2013-06-22 18:52:00,79.0,62.0,30.14,SSE,164,1.0,6.0,57,0.00,,,0.00,,2013-06-22 22:52:00,
2013-06-22 19:01:00,78.0,63.0,30.14,SSE,161,2.0,6.0,60,0.00,,,0.00,,2013-06-22 23:01:00,
2013-06-22 19:11:00,78.0,63.0,30.14,SSE,161,2.0,6.0,60,0.00,,,0.00,,2013-06-22 23:11:00,
2013-06-22 19:22:00,78.0,63.0,30.14,SSE,161,2.0,6.0,60,0.00,,,0.00,,2013-06-22 23:22:00,
2013-06-22 19:34:00,78.0,63.0,30.14,SSE,161,2.0,6.0,60,0.00,,,0.00,,2013-06-22 23:34:00,
2013-06-22 19:43:00,77.0,63.0,30.14,South,175,1.0,4.0,62,0.00,,,0.00,,2013-06-22 23:43:00,
2013-06-22 19:52:00,77.0,63.0,30.14,South,175,1.0,4.0,62,0.00,,,0.00,,2013-06-22 23:52:00,
2013-06-22 20:01:00,75.0,61.0,30.14,South,177,1.0,4.0,62,0.00,,,0.00,,2013-06-23 00:01:00,
2013-06-22 20:11:00,75.0,61.0,30.14,South,177,1.0,4.0,62,0.00,,,0.00,,2013-06-23 00:11:00,
2013-06-22 20:22:00,74.0,60.0,30.14,SSE,162,1.0,4.0,62,0.00,,,0.00,,2013-06-23 00:22:00,
2013-06-22 20:34:00,74.0,60.0,30.14,West,266,0.0,1.0,62,0.00,,,0.00,,2013-06-23 00:34:00,
2013-06-22 20:42:00,74.0,60.0,30.14,West,266,0.0,1.0,62,0.00,,,0.00,,2013-06-23 00:42:00,
2013-06-22 20:53:00,74.0,60.0,30.14,West,266,0.0,1.0,62,0.00,,,0.00,,2013-06-23 00:53:00,
2013-06-22 21:01:00,73.0,59.0,30.14,SE,142,0.0,2.0,61,0.00,,,0.00,,2013-06-23 01:01:00,
2013-06-22 21:12:00,73.0,59.0,30.14,SE,142,0.0,2.0,61,0.00,,,0.00,,2013-06-23 01:12:00,
2013-06-22 21:22:00,73.0,59.0,30.14,SE,142,0.0,2.0,61,0.00,,,0.00,,2013-06-23 01:22:00,
2013-06-22 21:32:00,72.0,58.0,30.15,SE,140,0.0,3.0,61,0.00,,,0.00,,2013-06-23 01:32:00,
2013-06-22 21:42:00,72.0,58.0,30.15,SE,140,0.0,3.0,61,0.00,,,0.00,,2013-06-23 01:42:00,
2013-06-22 21:52:00,72.0,58.0,30.15,SE,140,0.0,3.0,61,0.00,,,0.00,,2013-06-23 01:52:00,
2013-06-22 22:01:00,72.0,58.0,30.15,SE,140,0.0,3.0,61,0.00,,,0.00,,2013-06-23 02:01:00,
2013-06-22 22:11:00,72.0,58.0,30.15,SE,140,0.0,3.0,61,0.00,,,0.00,,2013-06-23 02:11:00,
2013-06-22 22:50:00,71.0,57.0,30.16,SE,132,0.0,1.0,62,0.00,,,0.00,,2013-06-23 02:50:00,
2013-06-22 23:11:00,71.0,57.0,30.16,SE,132,0.0,1.0,62,0.00,,,0.00,,2013-06-23 03:11:00,
2013-06-22 23:21:00,71.0,57.0,30.16,SE,132,0.0,1.0,62,0.00,,,0.00,,2013-06-23 03:21:00,
2013-06-22 23:31:00,71.0,57.0,30.16,SE,132,0.0,1.0,62,0.00,,,0.00,,2013-06-23 03:31:00,
2013-06-22 23:41:00,71.0,57.0,30.16,SE,132,0.0,1.0,62,0.00,,,0.00,,2013-06-23 03:41:00,